TimePDT,TemperatureF,Dew PointF,Humidity,Sea Level PressureIn,VisibilityMPH,Wind Direction,Wind SpeedMPH,Gust SpeedMPH,PrecipitationIn,Events,Conditions,WindDirDegrees,DateUTC
12:00 AM,39.2,35.6,87,29.98,9.0,Variable,2.3,-,N/A,,Clear,0,2012-10-11 07:00:00
1:00 AM,39.2,35.6,87,29.98,9.0,Calm,Calm,-,N/A,,Clear,0,2012-10-11 08:00:00
2:00 AM,39.2,33.8,81,30.00,9.0,North,5.8,-,N/A,,Clear,360,2012-10-11 09:00:00
3:00 AM,37.4,33.8,87,30.00,9.0,North,3.5,-,N/A,,Clear,350,2012-10-11 10:00:00
3:54 AM,35.6,32.0,87,30.01,4.0,Variable,2.3,-,N/A,,Clear,0,2012-10-11 10:54:00
4:00 AM,35.6,33.8,93,30.01,4.0,Calm,Calm,-,N/A,,Clear,0,2012-10-11 11:00:00
4:04 AM,33.8,32.0,93,30.01,9.0,Calm,Calm,-,N/A,,Clear,0,2012-10-11 11:04:00
5:00 AM,35,32,85,30.02,10,North,2.3,,,,,0,2012-10-11 12:00:00
5:00 AM,33.8,32.0,93,30.02,9.0,North,3.5,-,N/A,,Clear,10,2012-10-11 12:00:00
6:00 AM,33.8,32.0,93,30.03,9.0,NNE,3.5,-,N/A,,Clear,30,2012-10-11 13:00:00
7:00 AM,35.6,32.0,87,30.04,9.0,NNE,3.5,-,N/A,,Clear,30,2012-10-11 14:00:00
8:00 AM,33.8,32.0,93,30.06,9.0,Calm,Calm,-,N/A,,Clear,0,2012-10-11 15:00:00
9:00 AM,42.8,37.4,81,30.06,9.0,Calm,Calm,-,N/A,,Clear,0,2012-10-11 16:00:00
10:00 AM,50.0,39.2,66,30.04,9.0,Calm,Calm,-,N/A,,Clear,0,2012-10-11 17:00:00
11:00 AM,55,39,43,30.01,10,North,3.5,,,,,350,2012-10-11 18:00:00
11:00 AM,55.4,39.2,54,30.01,9.0,NNW,4.6,-,N/A,,Clear,340,2012-10-11 18:00:00
12:00 PM,57.2,39.2,51,29.99,9.0,Variable,2.3,-,N/A,,Clear,0,2012-10-11 19:00:00
1:00 PM,59.0,39.2,48,29.95,9.0,Variable,5.8,-,N/A,,Clear,0,2012-10-11 20:00:00
2:00 PM,60.8,39.2,45,29.91,9.0,NNW,3.5,-,N/A,,Clear,330,2012-10-11 21:00:00
3:00 PM,64.4,39.2,40,29.88,9.0,Variable,4.6,-,N/A,,Clear,0,2012-10-11 22:00:00
4:00 PM,64.4,39.2,40,29.83,9.0,Variable,2.3,-,N/A,,Clear,0,2012-10-11 23:00:00
5:00 PM,62,42,36,29.82,10,North,3.5,,,,,350,2012-10-12 00:00:00
5:00 PM,62.6,41.0,45,29.82,9.0,NNW,3.5,-,N/A,,Clear,330,2012-10-12 00:00:00
6:00 PM,57.2,42.8,59,29.81,9.0,Calm,Calm,-,N/A,,Mostly Cloudy,0,2012-10-12 01:00:00
7:00 PM,51.8,41.0,67,29.80,9.0,NNE,3.5,-,N/A,,Mostly Cloudy,20,2012-10-12 02:00:00
7:14 PM,50.0,41.0,71,29.81,5.0,NE,2.3,-,N/A,,Haze,50,2012-10-12 02:14:00
7:20 PM,51.8,41.0,67,29.80,6.0,NNE,3.5,-,N/A,,Haze,20,2012-10-12 02:20:00
7:32 PM,50.0,39.2,66,29.80,5.0,NNE,3.5,-,N/A,,Haze,30,2012-10-12 02:32:00
7:43 PM,51.8,39.2,62,29.79,6.0,NE,3.5,-,N/A,,Haze,50,2012-10-12 02:43:00
8:00 PM,50.0,39.2,66,29.80,9.0,Variable,2.3,-,N/A,,Mostly Cloudy,0,2012-10-12 03:00:00
9:00 PM,46.4,37.4,71,29.78,9.0,Variable,3.5,-,N/A,,Clear,0,2012-10-12 04:00:00
11:00 PM,44,38,73,29.76,10,SW,2.3,,,,,230,2012-10-12 06:00:00
11:00 PM,44.6,37.4,76,29.76,9.0,SSW,2.3,-,N/A,,Scattered Clouds,210,2012-10-12 06:00:00